Time,TemperatureF,DewpointF,PressureIn,WindDirection,WindDirectionDegrees,WindSpeedMPH,WindSpeedGustMPH,Humidity,HourlyPrecipIn,Conditions,Clouds,dailyrainin,SolarRadiationWatts/m^2,SoftwareType,DateUTC
2013-01-09 00:00:00,33.9,23.4,30.26,South,180,2.0,5.0,65,0.00,RA,OVC,0.00,0.0,WeatherDisplay:10.37,2013-01-09 05:00:00,
2013-01-09 00:01:00,33.4,24.3,30.27,South,173,2.0,2.0,69,0.00,,SCT250,0.00,0.00,VWS V14.01,2013-01-09 05:01:00,
2013-01-09 00:03:00,33.4,24.7,30.27,South,175,3.0,4.0,70,0.00,,SCT250,0.00,0.00,VWS V14.01,2013-01-09 05:03:00,
2013-01-09 00:08:00,33.4,24.7,30.27,South,175,2.0,3.0,70,0.00,,SCT250,0.00,0.00,VWS V14.01,2013-01-09 05:08:00,
2013-01-09 00:13:00,33.5,24.8,30.27,South,175,3.0,4.0,70,0.00,,SCT250,0.00,0.00,VWS V14.01,2013-01-09 05:13:00,
2013-01-09 00:18:00,33.9,23.7,30.25,South,179,2.0,3.5,66,0.00,BKN,OVC,0.00,0.0,WeatherDisplay:10.37,2013-01-09 05:18:00,
2013-01-09 00:23:00,33.1,25.1,30.27,South,176,3.0,4.0,72,0.00,,SCT250,0.00,0.00,VWS V14.01,2013-01-09 05:23:00,
2013-01-09 00:28:00,33.8,24.0,30.25,South,179,3.0,4.0,67,0.00,BKN,OVC,0.00,0.0,WeatherDisplay:10.37,2013-01-09 05:28:00,
2013-01-09 00:33:00,33.0,25.0,30.27,SE,132,3.0,4.0,72,0.00,,SCT250,0.00,0.00,VWS V14.01,2013-01-09 05:33:00,
2013-01-09 00:38:00,33.0,25.0,30.27,SE,143,2.0,4.0,72,0.00,,FEW250,0.00,0.00,VWS V14.01,2013-01-09 05:38:00,
2013-01-09 00:43:00,33.0,25.0,30.26,SSE,148,1.0,4.0,72,0.00,,FEW250,0.00,0.00,VWS V14.01,2013-01-09 05:43:00,
2013-01-09 00:48:00,32.8,24.8,30.26,SSE,152,3.0,3.0,72,0.00,,FEW250,0.00,0.00,VWS V14.01,2013-01-09 05:48:00,
2013-01-09 00:53:00,32.7,25.0,30.27,SE,142,1.0,3.0,73,0.00,,FEW250,0.00,0.00,VWS V14.01,2013-01-09 05:53:00,
2013-01-09 00:58:00,32.6,25.2,30.26,SSE,158,1.0,2.0,74,0.00,,FEW250,0.00,0.00,VWS V14.01,2013-01-09 05:58:00,
2013-01-09 01:03:00,32.4,25.0,30.26,SSE,161,2.0,3.0,74,0.00,,FEW250,0.00,0.00,VWS V14.01,2013-01-09 06:03:00,
2013-01-09 01:08:00,32.4,25.4,30.26,South,173,1.0,3.0,75,0.00,,FEW250,0.00,0.00,VWS V14.01,2013-01-09 06:08:00,
2013-01-09 01:13:00,32.0,25.0,30.26,SSE,159,2.0,2.0,75,0.00,,FEW250,0.00,0.00,VWS V14.01,2013-01-09 06:13:00,
2013-01-09 01:18:00,31.8,24.8,30.26,SSE,167,1.0,2.0,75,0.00,,FEW250,0.00,0.00,VWS V14.01,2013-01-09 06:18:00,
2013-01-09 01:23:00,32.8,23.7,30.25,South,171,2.5,2.5,69,0.00,BKN,OVC,0.00,0.0,WeatherDisplay:10.37,2013-01-09 06:23:00,
2013-01-09 01:28:00,31.8,25.1,30.26,SSE,162,1.0,3.0,76,0.00,,FEW250,0.00,0.00,VWS V14.01,2013-01-09 06:28:00,
2013-01-09 01:33:00,31.5,24.8,30.26,SE,140,2.0,3.0,76,0.00,,FEW250,0.00,0.00,VWS V14.01,2013-01-09 06:33:00,
2013-01-09 01:38:00,32.3,23.6,30.24,SSE,168,2.0,3.5,70,0.00,BKN,OVC,0.00,0.0,WeatherDisplay:10.37,2013-01-09 06:38:00,
2013-01-09 01:43:00,31.2,24.8,30.26,SSE,167,1.0,2.0,77,0.00,,SCT250,0.00,0.00,VWS V14.01,2013-01-09 06:43:00,
2013-01-09 01:48:00,31.1,24.8,30.26,SE,134,2.0,2.0,77,0.00,,SCT250,0.00,0.00,VWS V14.01,2013-01-09 06:48:00,
2013-01-09 01:53:00,30.8,24.5,30.26,SSE,150,1.0,2.0,77,0.00,,SCT250,0.00,0.00,VWS V14.01,2013-01-09 06:53:00,
2013-01-09 01:58:00,31.7,23.4,30.24,SSE,167,1.1,4.0,71,0.00,BKN,OVC,0.00,0.0,WeatherDisplay:10.37,2013-01-09 06:58:00,
2013-01-09 02:03:00,30.2,24.5,30.26,SSE,150,1.0,2.0,79,0.00,,SCT250,0.00,0.00,VWS V14.01,2013-01-09 07:03:00,
2013-01-09 02:08:00,30.1,24.4,30.26,SE,135,2.0,3.0,79,0.00,,SCT250,0.00,0.00,VWS V14.01,2013-01-09 07:08:00,
2013-01-09 02:13:00,31.4,23.7,30.24,SSE,165,3.3,4.0,73,0.00,BKN,OVC,0.00,0.0,WeatherDisplay:10.37,2013-01-09 07:13:00,
2013-01-09 02:18:00,30.6,24.9,30.26,SSE,161,2.0,3.0,79,0.00,,SCT250,0.00,0.00,VWS V14.01,2013-01-09 07:18:00,
2013-01-09 02:23:00,31.4,24.1,30.24,SSE,160,3.6,5.8,74,0.00,BKN,OVC,0.00,0.0,WeatherDisplay:10.37,2013-01-09 07:23:00,
2013-01-09 02:28:00,31.1,25.4,30.26,SSE,150,2.0,3.0,79,0.00,,SCT250,0.00,0.00,VWS V14.01,2013-01-09 07:28:00,
2013-01-09 02:33:00,31.4,24.1,30.24,SSE,159,2.2,5.8,74,0.00,BKN,OVC,0.00,0.0,WeatherDisplay:10.37,2013-01-09 07:33:00,
2013-01-09 02:38:00,30.8,25.4,30.25,SSE,147,1.0,2.0,80,0.00,,FEW250,0.00,0.00,VWS V14.01,2013-01-09 07:38:00,
2013-01-09 02:43:00,30.6,24.9,30.25,SE,142,1.0,3.0,79,0.00,,FEW250,0.00,0.00,VWS V14.01,2013-01-09 07:43:00,
2013-01-09 02:48:00,31.4,24.1,30.23,SSE,159,2.2,3.5,74,0.00,BKN,OVC,0.00,0.0,WeatherDisplay:10.37,2013-01-09 07:48:00,
2013-01-09 02:52:00,30.7,25.3,30.25,SSE,153,1.0,1.0,80,0.00,,FEW250,0.00,0.00,VWS V14.01,2013-01-09 07:52:00,
2013-01-09 02:57:00,30.6,25.5,30.25,SSE,153,2.0,2.0,81,0.00,,FEW250,0.00,0.00,VWS V14.01,2013-01-09 07:57:00,
2013-01-09 03:02:00,30.8,25.7,30.24,SSE,150,1.0,3.0,81,0.00,,FEW250,0.00,0.00,VWS V14.01,2013-01-09 08:02:00,
2013-01-09 03:07:00,30.7,25.3,30.24,SSE,155,1.0,2.0,80,0.00,,FEW250,0.00,0.00,VWS V14.01,2013-01-09 08:07:00,
2013-01-09 03:12:00,30.7,25.6,30.24,SSE,150,2.0,3.0,81,0.00,,FEW250,0.00,0.00,VWS V14.01,2013-01-09 08:12:00,
2013-01-09 03:17:00,31.0,25.9,30.24,SSE,159,4.0,4.0,81,0.00,,FEW250,0.00,0.00,VWS V14.01,2013-01-09 08:17:00,
2013-01-09 03:22:00,31.4,24.7,30.21,SSE,159,2.6,3.5,76,0.00,BKN,OVC,0.00,0.0,WeatherDisplay:10.37,2013-01-09 08:22:00,
2013-01-09 03:27:00,31.2,25.8,30.23,SSE,154,2.0,3.0,80,0.00,,FEW250,0.00,0.00,VWS V14.01,2013-01-09 08:27:00,
2013-01-09 03:32:00,31.6,24.9,30.21,SSE,159,3.9,5.8,76,0.00,BKN,OVC,0.00,0.0,WeatherDisplay:10.37,2013-01-09 08:32:00,
2013-01-09 03:37:00,31.7,26.5,30.22,SE,146,2.0,2.0,81,0.00,,FEW250,0.00,0.00,VWS V14.01,2013-01-09 08:37:00,
2013-01-09 03:42:00,31.9,25.2,30.20,SSE,159,1.9,2.3,76,0.00,BKN,OVC,0.00,0.0,WeatherDisplay:10.37,2013-01-09 08:42:00,
2013-01-09 03:47:00,31.9,26.4,30.22,SSE,148,3.0,3.0,80,0.00,,FEW250,0.00,0.00,VWS V14.01,2013-01-09 08:47:00,
2013-01-09 03:52:00,32.1,25.4,30.20,SSE,159,2.4,4.6,76,0.00,BKN,OVC,0.00,0.0,WeatherDisplay:10.37,2013-01-09 08:52:00,
2013-01-09 03:57:00,31.6,26.1,30.22,SSE,161,2.0,3.0,80,0.00,,FEW250,0.00,0.00,VWS V14.01,2013-01-09 08:57:00,
2013-01-09 04:02:00,32.1,25.1,30.20,SSE,158,2.9,5.0,75,0.00,BKN,OVC,0.00,0.0,WeatherDisplay:10.37,2013-01-09 09:02:00,
2013-01-09 04:07:00,31.6,26.5,30.21,SSE,160,2.0,4.0,81,0.00,,FEW250,0.00,0.00,VWS V14.01,2013-01-09 09:07:00,
2013-01-09 04:12:00,32.2,25.5,30.19,SSE,156,2.8,5.8,76,0.00,BKN,OVC,0.00,0.0,WeatherDisplay:10.37,2013-01-09 09:12:00,
2013-01-09 04:17:00,32.0,26.5,30.21,SE,140,4.0,4.0,80,0.00,,FEW250,0.00,0.00,VWS V14.01,2013-01-09 09:17:00,
2013-01-09 04:22:00,31.8,26.4,30.20,SE,146,4.0,4.0,80,0.00,,FEW250,0.00,0.00,VWS V14.01,2013-01-09 09:22:00,
2013-01-09 04:27:00,31.5,26.0,30.20,SSE,148,4.0,4.0,80,0.00,,FEW250,0.00,0.00,VWS V14.01,2013-01-09 09:27:00,
2013-01-09 04:32:00,31.9,24.9,30.19,SSE,152,2.6,5.8,75,0.00,BKN,OVC,0.00,0.0,WeatherDisplay:10.37,2013-01-09 09:32:00,
2013-01-09 04:37:00,31.5,26.4,30.20,SE,145,1.0,2.0,81,0.00,,FEW250,0.00,0.00,VWS V14.01,2013-01-09 09:37:00,
2013-01-09 04:42:00,31.7,26.5,30.20,SSE,154,3.0,3.0,81,0.00,,FEW250,0.00,0.00,VWS V14.01,2013-01-09 09:42:00,
2013-01-09 04:47:00,32.1,26.6,30.19,South,181,4.0,4.0,80,0.00,,FEW250,0.00,0.00,VWS V14.01,2013-01-09 09:47:00,
2013-01-09 04:52:00,32.2,25.5,30.18,SSE,153,3.2,5.8,76,0.00,BKN,OVC,0.00,0.0,WeatherDisplay:10.37,2013-01-09 09:52:00,
2013-01-09 04:57:00,32.3,25.6,30.18,SSE,155,4.0,4.6,76,0.00,BKN,OVC,0.00,0.0,WeatherDisplay:10.37,2013-01-09 09:57:00,
2013-01-09 05:02:00,32.7,26.9,30.19,SE,136,3.0,3.0,79,0.00,,FEW250,0.00,0.00,VWS V14.01,2013-01-09 10:02:00,
2013-01-09 05:07:00,32.7,25.6,30.17,SSE,155,3.6,8.1,75,0.00,BKN,OVC,0.00,0.0,WeatherDisplay:10.37,2013-01-09 10:07:00,
2013-01-09 05:12:00,33.0,26.9,30.18,SSE,168,5.0,5.0,78,0.00,,FEW250,0.00,0.00,VWS V14.01,2013-01-09 10:12:00,
2013-01-09 05:17:00,33.1,27.0,30.18,SSE,151,2.0,4.0,78,0.00,,FEW250,0.00,0.00,VWS V14.01,2013-01-09 10:17:00,
2013-01-09 05:22:00,33.5,27.4,30.18,SSE,149,4.0,4.0,78,0.00,,FEW250,0.00,0.00,VWS V14.01,2013-01-09 10:22:00,
2013-01-09 05:27:00,33.7,27.6,30.18,South,183,4.0,4.0,78,0.00,,FEW250,0.00,0.00,VWS V14.01,2013-01-09 10:27:00,
2013-01-09 05:32:00,33.6,26.2,30.16,SSE,163,5.3,9.2,74,0.00,BKN,OVC,0.00,0.0,WeatherDisplay:10.37,2013-01-09 10:32:00,
2013-01-09 05:37:00,34.0,27.6,30.17,South,169,6.0,6.0,77,0.00,,SCT250,0.00,0.00,VWS V14.01,2013-01-09 10:37:00,
2013-01-09 05:42:00,33.9,27.5,30.18,SSE,166,2.0,4.0,77,0.00,,SCT250,0.00,0.00,VWS V14.01,2013-01-09 10:42:00,
2013-01-09 05:47:00,34.0,27.6,30.17,South,173,4.0,4.0,77,0.00,,SCT250,0.00,0.00,VWS V14.01,2013-01-09 10:47:00,
2013-01-09 05:52:00,34.2,27.8,30.17,SSE,161,1.0,2.0,77,0.00,,SCT250,0.00,0.00,VWS V14.01,2013-01-09 10:52:00,
2013-01-09 05:57:00,34.2,27.4,30.17,SSE,156,3.0,3.0,76,0.00,,SCT250,0.00,0.00,VWS V14.01,2013-01-09 10:57:00,
2013-01-09 06:02:00,34.3,26.2,30.16,SSE,163,3.5,4.6,72,0.00,BKN,OVC,0.00,0.0,WeatherDisplay:10.37,2013-01-09 11:02:00,
2013-01-09 06:07:00,34.9,27.8,30.17,SSE,155,3.0,3.0,75,0.00,,SCT250,0.00,0.00,VWS V14.01,2013-01-09 11:07:00,
2013-01-09 06:12:00,35.4,28.3,30.18,South,169,1.0,1.0,75,0.00,,SCT250,0.00,0.00,VWS V14.01,2013-01-09 11:12:00,
2013-01-09 06:17:00,35.9,28.1,30.17,South,179,2.0,2.0,73,0.00,,SCT250,0.00,0.00,VWS V14.01,2013-01-09 11:17:00,
2013-01-09 06:22:00,36.2,28.4,30.17,SSW,192,1.0,3.0,73,0.00,,SCT250,0.00,0.00,VWS V14.01,2013-01-09 11:22:00,
2013-01-09 06:27:00,36.5,28.4,30.17,South,169,5.0,5.0,72,0.00,,SCT250,0.00,0.00,VWS V14.01,2013-01-09 11:27:00,
2013-01-09 06:32:00,36.5,27.3,30.16,South,188,4.0,10.4,69,0.00,BKN,OVC,0.00,0.0,WeatherDisplay:10.37,2013-01-09 11:32:00,
2013-01-09 06:37:00,37.2,28.3,30.17,South,182,3.0,4.0,70,0.00,,SCT250,0.00,0.00,VWS V14.01,2013-01-09 11:37:00,
2013-01-09 06:42:00,37.0,27.1,30.15,SSE,159,6.5,10.4,67,0.00,BKN,OVC,0.00,0.0,WeatherDisplay:10.37,2013-01-09 11:42:00,
2013-01-09 06:47:00,37.2,28.3,30.16,South,171,4.0,4.0,70,0.00,,SCT250,0.00,0.00,VWS V14.01,2013-01-09 11:47:00,
2013-01-09 06:52:00,37.3,27.0,30.14,SSE,168,2.9,9.2,66,0.00,BKN,OVC,0.00,0.0,WeatherDisplay:10.37,2013-01-09 11:52:00,
2013-01-09 06:57:00,37.5,28.3,30.16,SSE,165,3.0,4.0,69,0.00,,SCT250,0.00,0.00,VWS V14.01,2013-01-09 11:57:00,
2013-01-09 07:02:00,37.5,28.3,30.15,South,172,3.0,5.0,69,0.00,,SCT250,0.00,0.00,VWS V14.01,2013-01-09 12:02:00,
2013-01-09 07:07:00,37.6,28.4,30.14,SSW,197,4.0,5.0,69,0.00,,SCT250,0.00,0.00,VWS V14.01,2013-01-09 12:07:00,
2013-01-09 07:12:00,37.7,28.5,30.13,South,175,6.0,6.0,69,0.00,,SCT250,0.00,0.00,VWS V14.01,2013-01-09 12:12:00,
2013-01-09 07:17:00,37.9,28.3,30.13,South,185,2.0,5.0,68,0.00,,SCT250,0.00,0.00,VWS V14.01,2013-01-09 12:17:00,
2013-01-09 07:22:00,38.0,28.4,30.12,South,176,4.0,5.0,68,0.00,,SCT250,0.00,0.00,VWS V14.01,2013-01-09 12:22:00,
2013-01-09 07:27:00,38.0,26.9,30.11,SSE,164,4.7,6.9,64,0.00,BKN,OVC,0.00,0.0,WeatherDisplay:10.37,2013-01-09 12:27:00,
2013-01-09 07:32:00,37.3,28.1,30.13,SE,134,4.0,5.0,69,0.00,,SCT250,0.00,0.00,VWS V14.01,2013-01-09 12:32:00,
2013-01-09 07:37:00,37.6,26.5,30.11,SSE,159,5.5,10.4,64,0.00,BKN,OVC,0.00,0.0,WeatherDisplay:10.37,2013-01-09 12:37:00,
2013-01-09 07:42:00,37.4,26.7,30.12,South,171,4.5,9.2,65,0.00,BKN,OVC,0.00,0.0,WeatherDisplay:10.37,2013-01-09 12:42:00,
2013-01-09 07:47:00,36.9,28.0,30.13,SSE,148,1.0,3.0,70,0.00,,SCT250,0.00,0.00,VWS V14.01,2013-01-09 12:47:00,
2013-01-09 07:52:00,36.8,28.0,30.12,SE,141,4.0,6.0,70,0.00,,SCT250,0.00,0.00,VWS V14.01,2013-01-09 12:52:00,
2013-01-09 07:57:00,37.1,26.4,30.10,SSE,167,5.6,11.5,65,0.00,BKN,OVC,0.00,0.0,WeatherDisplay:10.37,2013-01-09 12:57:00,
2013-01-09 08:02:00,37.1,28.2,30.12,SSE,157,4.0,4.0,70,0.00,,BKN250,0.00,5.00,VWS V14.01,2013-01-09 13:02:00,
2013-01-09 08:07:00,37.4,28.2,30.12,SSE,165,4.0,5.0,69,0.00,,BKN250,0.00,9.00,VWS V14.01,2013-01-09 13:07:00,
2013-01-09 08:12:00,37.5,26.8,30.10,SSE,147,5.6,10.4,65,0.00,BKN,OVC,0.00,12.0,WeatherDisplay:10.37,2013-01-09 13:12:00,
2013-01-09 08:17:00,37.6,28.4,30.11,South,172,5.0,5.0,69,0.00,,BKN250,0.00,14.00,VWS V14.01,2013-01-09 13:17:00,
2013-01-09 08:22:00,38.0,28.8,30.10,South,173,5.0,5.0,69,0.00,,BKN250,0.00,16.00,VWS V14.01,2013-01-09 13:22:00,
2013-01-09 08:27:00,38.5,28.9,30.11,SSE,160,3.0,4.0,68,0.00,,BKN250,0.00,18.00,VWS V14.01,2013-01-09 13:27:00,
2013-01-09 08:32:00,38.9,29.2,30.11,SSW,202,7.0,9.0,68,0.00,,BKN250,0.00,23.00,VWS V14.01,2013-01-09 13:32:00,
2013-01-09 08:37:00,39.2,28.4,30.09,South,186,7.1,18.4,65,0.00,BKN,OVC,0.00,25.0,WeatherDisplay:10.37,2013-01-09 13:37:00,
2013-01-09 08:42:00,41.5,30.6,30.10,SSW,201,5.0,10.0,65,0.00,,BKN250,0.00,25.00,VWS V14.01,2013-01-09 13:42:00,
2013-01-09 08:47:00,41.4,29.3,30.09,South,172,7.3,13.8,62,0.00,BKN,OVC,0.00,26.0,WeatherDisplay:10.37,2013-01-09 13:47:00,
2013-01-09 08:52:00,42.7,30.6,30.11,SW,221,7.0,9.0,62,0.00,,BKN250,0.00,28.00,VWS V14.01,2013-01-09 13:52:00,
2013-01-09 08:57:00,42.7,29.8,30.08,SSW,211,6.0,11.5,60,0.00,BKN,OVC,0.00,23.0,WeatherDisplay:10.37,2013-01-09 13:57:00,
2013-01-09 09:02:00,43.2,31.1,30.10,SSW,203,2.0,5.0,62,0.00,,BKN250,0.00,30.00,VWS V14.01,2013-01-09 14:02:00,
2013-01-09 09:07:00,43.4,31.3,30.10,SW,220,5.0,6.0,62,0.00,,BKN250,0.00,26.00,VWS V14.01,2013-01-09 14:07:00,
2013-01-09 09:12:00,43.9,30.1,30.08,SW,231,6.8,13.8,58,0.00,BKN,OVC,0.00,30.0,WeatherDisplay:10.37,2013-01-09 14:12:00,
2013-01-09 09:17:00,44.0,31.4,30.10,SW,224,3.0,8.0,61,0.00,,BKN250,0.00,28.00,VWS V14.01,2013-01-09 14:17:00,
2013-01-09 09:22:00,44.5,30.2,30.08,SSW,210,10.2,11.5,57,0.00,BKN,OVC,0.00,30.0,WeatherDisplay:10.37,2013-01-09 14:22:00,
2013-01-09 09:27:00,44.6,31.6,30.09,SW,231,5.0,10.0,60,0.00,,BKN250,0.00,32.00,VWS V14.01,2013-01-09 14:27:00,
2013-01-09 09:32:00,44.8,31.8,30.09,SW,228,6.0,11.0,60,0.00,,BKN250,0.00,28.00,VWS V14.01,2013-01-09 14:32:00,
2013-01-09 09:37:00,45.2,30.4,30.08,SW,219,6.1,15.0,56,0.00,BKN,OVC,0.00,35.0,WeatherDisplay:10.37,2013-01-09 14:37:00,
2013-01-09 09:42:00,44.5,31.9,30.10,SSW,200,3.0,7.0,61,0.00,,OVC200,0.00,25.00,VWS V14.01,2013-01-09 14:42:00,
2013-01-09 09:47:00,44.4,31.8,30.09,SW,221,3.0,7.0,61,0.00,,OVC200,0.00,19.00,VWS V14.01,2013-01-09 14:47:00,
2013-01-09 09:52:00,45.2,31.3,30.06,SW,234,6.9,11.5,58,0.00,BKN,OVC,0.00,37.0,WeatherDisplay:10.37,2013-01-09 14:52:00,
2013-01-09 09:57:00,44.4,32.2,30.06,South,184,8.0,8.0,62,0.00,,OVC200,0.00,83.00,VWS V14.01,2013-01-09 14:57:00,
2013-01-09 10:02:00,45.3,31.4,30.05,SW,219,11.1,21.0,58,0.00,BKN,OVC,0.00,102.0,WeatherDisplay:10.37,2013-01-09 15:02:00,
2013-01-09 10:07:00,45.1,32.9,30.07,SSW,209,4.0,9.0,62,0.00,,OVC200,0.00,104.00,VWS V14.01,2013-01-09 15:07:00,
2013-01-09 10:12:00,45.2,32.6,30.08,SSW,200,8.0,8.0,61,0.00,,OVC200,0.00,72.00,VWS V14.01,2013-01-09 15:12:00,
2013-01-09 10:17:00,44.8,32.6,30.07,SSW,192,11.0,11.0,62,0.00,,OVC200,0.00,62.00,VWS V14.01,2013-01-09 15:17:00,
2013-01-09 10:22:00,44.6,32.8,30.06,SW,225,8.0,13.0,63,0.00,,OVC200,0.00,63.00,VWS V14.01,2013-01-09 15:22:00,
2013-01-09 10:27:00,45.2,31.7,30.03,SSW,197,7.7,19.6,59,0.00,BKN,OVC,0.00,74.0,WeatherDisplay:10.37,2013-01-09 15:27:00,
2013-01-09 10:32:00,44.6,32.8,30.05,SW,232,3.0,4.0,63,0.00,,OVC200,0.00,46.00,VWS V14.01,2013-01-09 15:32:00,
2013-01-09 10:37:00,44.2,33.2,30.06,SSW,213,3.0,7.0,65,0.00,,-RA,0.00,49.00,VWS V14.01,2013-01-09 15:37:00,
2013-01-09 10:42:00,44.8,32.2,30.04,WSW,254,11.1,12.7,61,0.00,BKN,OVC,0.00,81.0,WeatherDisplay:10.37,2013-01-09 15:42:00,
2013-01-09 10:47:00,43.9,33.7,30.06,SSW,204,7.0,7.0,67,0.00,,-RA,0.00,104.00,VWS V14.01,2013-01-09 15:47:00,
2013-01-09 10:52:00,43.9,34.0,30.05,SW,219,6.0,7.0,68,0.00,,-RA,0.00,132.00,VWS V14.01,2013-01-09 15:52:00,
2013-01-09 10:57:00,43.6,34.1,30.04,SW,232,4.0,8.0,69,0.00,,-RA,0.00,156.00,VWS V14.01,2013-01-09 15:57:00,
2013-01-09 11:02:00,44.2,32.8,30.02,SW,228,6.9,16.1,64,0.00,SCT,OVC,0.00,204.0,WeatherDisplay:10.37,2013-01-09 16:02:00,
2013-01-09 11:07:00,44.2,32.8,30.02,West,267,8.6,10.4,64,0.00,SCT,OVC,0.00,276.0,WeatherDisplay:10.37,2013-01-09 16:07:00,
2013-01-09 11:12:00,44.2,34.3,30.04,SSW,210,3.0,5.0,68,0.00,,-RA,0.00,487.00,VWS V14.01,2013-01-09 16:12:00,
2013-01-09 11:17:00,44.7,33.6,30.02,WSW,247,11.0,13.8,65,0.00,CLR,OVC,0.00,466.0,WeatherDisplay:10.37,2013-01-09 16:17:00,
2013-01-09 11:22:00,45.2,34.9,30.04,SW,217,5.0,9.0,67,0.00,,-RA,0.00,243.00,VWS V14.01,2013-01-09 16:22:00,
2013-01-09 11:27:00,45.0,35.1,30.03,SSW,202,5.0,13.0,68,0.00,,-RA,0.00,554.00,VWS V14.01,2013-01-09 16:27:00,
2013-01-09 11:32:00,44.9,35.0,30.03,SW,233,8.0,8.0,68,0.00,,-RA,0.00,461.00,VWS V14.01,2013-01-09 16:32:00,
2013-01-09 11:37:00,45.1,35.2,30.03,SW,236,4.0,6.0,68,0.00,,BKN200,0.00,506.00,VWS V14.01,2013-01-09 16:37:00,
2013-01-09 11:42:00,44.9,35.0,30.04,SW,234,6.0,7.0,68,0.00,,BKN200,0.00,330.00,VWS V14.01,2013-01-09 16:42:00,
2013-01-09 11:47:00,44.3,34.8,30.03,WSW,243,4.0,8.0,69,0.00,,BKN200,0.00,181.00,VWS V14.01,2013-01-09 16:47:00,
2013-01-09 11:52:00,44.1,35.0,30.02,WSW,240,2.0,4.0,70,0.00,,BKN200,0.00,332.00,VWS V14.01,2013-01-09 16:52:00,
2013-01-09 11:57:00,45.2,34.5,30.00,WSW,257,8.9,12.7,66,0.00,SCT,OVC,0.00,202.0,WeatherDisplay:10.37,2013-01-09 16:57:00,
2013-01-09 12:02:00,45.0,34.3,30.00,SW,223,8.3,13.8,66,0.00,SCT,OVC,0.00,213.0,WeatherDisplay:10.37,2013-01-09 17:02:00,
2013-01-09 12:07:00,44.3,35.9,30.00,SW,226,4.0,6.0,72,0.00,,BKN200,0.00,329.00,VWS V14.01,2013-01-09 17:07:00,
2013-01-09 12:12:00,44.7,35.9,30.00,WSW,244,5.0,7.0,71,0.00,,BKN200,0.00,381.00,VWS V14.01,2013-01-09 17:12:00,
2013-01-09 12:17:00,45.1,36.3,30.00,SW,234,3.0,6.0,71,0.00,,BKN200,0.00,388.00,VWS V14.01,2013-01-09 17:17:00,
2013-01-09 12:22:00,45.8,35.5,29.99,SW,229,6.0,11.5,67,0.00,CLR,OVC,0.00,517.0,WeatherDisplay:10.37,2013-01-09 17:22:00,
2013-01-09 12:27:00,45.4,36.6,30.01,WSW,257,7.0,7.0,71,0.00,,BKN200,0.00,192.00,VWS V14.01,2013-01-09 17:27:00,
2013-01-09 12:32:00,46.0,35.7,29.99,WSW,249,11.8,18.4,67,0.00,FEW,OVC,0.00,207.0,WeatherDisplay:10.37,2013-01-09 17:32:00,
2013-01-09 12:37:00,45.0,36.2,30.01,WSW,254,4.0,6.0,71,0.00,,BKN200,0.00,127.00,VWS V14.01,2013-01-09 17:37:00,
2013-01-09 12:41:00,44.9,36.4,30.00,West,271,8.0,12.0,72,0.00,,BKN200,0.00,118.00,VWS V14.01,2013-01-09 17:41:00,
2013-01-09 12:46:00,44.6,36.2,30.00,WSW,258,7.0,7.0,72,0.00,,BKN200,0.00,109.00,VWS V14.01,2013-01-09 17:46:00,
2013-01-09 12:51:00,45.2,35.3,29.98,WSW,247,15.2,25.3,68,0.00,BKN,OVC,0.00,171.0,WeatherDisplay:10.37,2013-01-09 17:51:00,
2013-01-09 12:56:00,44.6,36.2,29.99,SW,234,5.0,7.0,72,0.00,,BKN200,0.00,195.00,VWS V14.01,2013-01-09 17:56:00,
2013-01-09 13:01:00,45.1,34.8,29.98,WSW,251,15.2,26.0,67,0.00,SCT,OVC,0.00,207.0,WeatherDisplay:10.37,2013-01-09 18:01:00,
2013-01-09 13:06:00,45.3,35.0,29.97,WSW,240,17.2,34.5,67,0.00,SCT,OVC,0.00,485.0,WeatherDisplay:10.37,2013-01-09 18:06:00,
2013-01-09 13:11:00,45.4,35.1,29.98,WSW,257,10.4,18.4,67,0.00,CLR,OVC,0.00,381.0,WeatherDisplay:10.37,2013-01-09 18:11:00,
2013-01-09 13:16:00,45.1,35.9,29.98,West,266,10.0,11.0,70,0.00,,BKN200,0.00,239.00,VWS V14.01,2013-01-09 18:16:00,
2013-01-09 13:21:00,45.4,34.7,29.98,WSW,248,19.5,21.9,66,0.00,FEW,OVC,0.00,185.0,WeatherDisplay:10.37,2013-01-09 18:21:00,
2013-01-09 13:26:00,45.0,35.8,29.99,WSW,252,15.0,15.0,70,0.00,,BKN200,0.00,526.00,VWS V14.01,2013-01-09 18:26:00,
2013-01-09 13:31:00,45.1,36.3,29.99,West,275,14.0,14.0,71,0.00,,BKN200,0.00,526.00,VWS V14.01,2013-01-09 18:31:00,
2013-01-09 13:36:00,45.2,34.9,29.98,SW,230,23.8,37.0,67,0.00,SCT,OVC,0.00,464.0,WeatherDisplay:10.37,2013-01-09 18:36:00,
2013-01-09 13:41:00,44.6,35.8,29.99,West,259,11.0,16.0,71,0.00,,BKN200,0.00,171.00,VWS V14.01,2013-01-09 18:41:00,
2013-01-09 13:44:00,44.5,35.7,29.99,WSW,254,11.0,13.0,71,0.00,,BKN200,0.00,134.00,VWS V14.01,2013-01-09 18:44:00,
2013-01-09 13:48:00,44.9,36.1,30.00,WSW,245,9.0,14.0,71,0.00,,BKN200,0.00,524.00,VWS V14.01,2013-01-09 18:48:00,
2013-01-09 13:53:00,44.7,34.8,29.98,WSW,254,21.0,34.5,68,0.00,FEW,OVC,0.00,371.0,WeatherDisplay:10.37,2013-01-09 18:53:00,
2013-01-09 13:58:00,44.7,36.2,30.01,SW,236,7.0,12.0,72,0.00,,BKN200,0.00,476.00,VWS V14.01,2013-01-09 18:58:00,
2013-01-09 14:03:00,44.7,34.8,30.00,WSW,238,21.2,35.0,68,0.00,CLR,OVC,0.00,120.0,WeatherDisplay:10.37,2013-01-09 19:03:00,
2013-01-09 14:08:00,44.1,35.7,30.02,West,259,10.0,12.0,72,0.00,,BKN200,0.00,123.00,VWS V14.01,2013-01-09 19:08:00,
2013-01-09 14:13:00,43.7,35.6,30.02,WSW,253,6.0,10.0,73,0.00,,BKN200,0.00,163.00,VWS V14.01,2013-01-09 19:13:00,
2013-01-09 14:18:00,43.9,34.7,30.00,WSW,248,19.5,33.0,70,0.00,CLR,OVC,0.00,330.0,WeatherDisplay:10.37,2013-01-09 19:18:00,
2013-01-09 14:23:00,43.3,35.6,30.02,SW,229,5.0,11.0,74,0.00,,BKN200,0.00,285.00,VWS V14.01,2013-01-09 19:23:00,
2013-01-09 14:28:00,43.4,34.3,30.01,WSW,244,22.2,39.1,70,0.00,CLR,OVC,0.00,295.0,WeatherDisplay:10.37,2013-01-09 19:28:00,
2013-01-09 14:33:00,43.0,35.3,30.03,WSW,257,8.0,8.0,74,0.00,,BKN200,0.00,297.00,VWS V14.01,2013-01-09 19:33:00,
2013-01-09 14:38:00,42.8,35.4,30.03,West,261,6.0,13.0,75,0.00,,BKN200,0.00,116.00,VWS V14.01,2013-01-09 19:38:00,
2013-01-09 14:43:00,42.9,34.1,30.02,WSW,255,17.3,26.5,71,0.00,CLR,OVC,0.00,272.0,WeatherDisplay:10.37,2013-01-09 19:43:00,
2013-01-09 14:48:00,42.4,35.4,30.03,WSW,252,10.0,12.0,76,0.00,,BKN200,0.00,318.00,VWS V14.01,2013-01-09 19:48:00,
2013-01-09 14:53:00,42.5,34.1,30.02,WSW,254,17.4,25.3,72,0.00,FEW,OVC,0.00,165.0,WeatherDisplay:10.37,2013-01-09 19:53:00,
2013-01-09 14:58:00,42.0,35.3,30.04,WSW,249,6.0,9.0,77,0.00,,BKN200,0.00,241.00,VWS V14.01,2013-01-09 19:58:00,
2013-01-09 15:03:00,41.9,33.9,30.02,SW,228,22.1,28.8,73,0.00,FEW,OVC,0.00,111.0,WeatherDisplay:10.37,2013-01-09 20:03:00,
2013-01-09 15:08:00,41.4,35.1,30.04,West,264,11.0,11.0,78,0.00,,SCT200,0.00,118.00,VWS V14.01,2013-01-09 20:08:00,
2013-01-09 15:13:00,41.2,35.2,30.05,West,261,6.0,13.0,79,0.00,,SCT200,0.00,120.00,VWS V14.01,2013-01-09 20:13:00,
2013-01-09 15:18:00,41.3,34.0,30.04,West,259,16.3,24.2,75,0.00,SCT,OVC,0.00,109.0,WeatherDisplay:10.37,2013-01-09 20:18:00,
2013-01-09 15:23:00,40.9,35.2,30.06,SW,232,7.0,9.0,80,0.00,,BKN200,0.00,105.00,VWS V14.01,2013-01-09 20:23:00,
2013-01-09 15:28:00,40.9,33.9,30.04,WSW,238,17.5,26.5,76,0.00,SCT,OVC,0.00,163.0,WeatherDisplay:10.37,2013-01-09 20:28:00,
2013-01-09 15:33:00,40.5,35.5,30.06,WSW,238,9.0,14.0,82,0.00,,BKN200,0.00,72.00,VWS V14.01,2013-01-09 20:33:00,
2013-01-09 15:38:00,40.4,35.3,30.07,West,277,9.0,9.0,82,0.00,,BKN200,0.00,111.00,VWS V14.01,2013-01-09 20:38:00,
2013-01-09 15:43:00,40.4,35.3,30.07,West,263,8.0,8.0,82,0.00,,BKN200,0.00,120.00,VWS V14.01,2013-01-09 20:43:00,
2013-01-09 15:48:00,40.3,35.6,30.07,West,265,8.0,9.0,83,0.00,,BKN200,0.00,137.00,VWS V14.01,2013-01-09 20:48:00,
2013-01-09 15:53:00,40.4,34.1,30.06,WSW,249,19.4,34.0,78,0.00,CLR,OVC,0.00,77.0,WeatherDisplay:10.37,2013-01-09 20:53:00,
2013-01-09 15:58:00,40.3,34.3,30.06,West,259,16.8,27.6,79,0.00,FEW,OVC,0.00,83.0,WeatherDisplay:10.37,2013-01-09 20:58:00,
2013-01-09 16:03:00,39.8,35.1,30.07,West,271,7.0,7.0,83,0.00,,BKN250,0.00,79.00,VWS V14.01,2013-01-09 21:03:00,
2013-01-09 16:08:00,40.1,34.1,30.06,WSW,250,16.4,24.2,79,0.00,SCT,OVC,0.00,54.0,WeatherDisplay:10.37,2013-01-09 21:08:00,
2013-01-09 16:13:00,39.6,35.2,30.08,WSW,254,7.0,7.0,84,0.00,,SCT250,0.00,32.00,VWS V14.01,2013-01-09 21:13:00,
2013-01-09 16:18:00,39.9,33.9,30.06,WSW,249,11.7,24.2,79,0.00,SCT,OVC,0.00,39.0,WeatherDisplay:10.37,2013-01-09 21:18:00,
2013-01-09 16:23:00,39.8,33.8,30.06,WSW,250,16.4,26.5,79,0.00,BKN,OVC,0.00,30.0,WeatherDisplay:10.37,2013-01-09 21:23:00,
2013-01-09 16:28:00,39.5,35.1,30.08,WSW,254,10.0,10.0,84,0.00,,BKN250,0.00,23.00,VWS V14.01,2013-01-09 21:28:00,
2013-01-09 16:33:00,39.4,35.0,30.08,West,266,6.0,7.0,84,0.00,,BKN250,0.00,23.00,VWS V14.01,2013-01-09 21:33:00,
2013-01-09 16:38:00,39.5,34.8,30.08,WSW,247,8.0,9.0,83,0.00,,SCT250,0.00,18.00,VWS V14.01,2013-01-09 21:38:00,
2013-01-09 16:43:00,39.5,34.8,30.08,WSW,248,5.0,8.0,83,0.00,,SCT250,0.00,14.00,VWS V14.01,2013-01-09 21:43:00,
2013-01-09 16:48:00,39.5,34.8,30.08,WSW,238,6.0,6.0,83,0.00,,SCT250,0.00,11.00,VWS V14.01,2013-01-09 21:48:00,
2013-01-09 16:53:00,39.4,34.4,30.09,WSW,247,4.0,7.0,82,0.00,,SCT250,0.00,7.00,VWS V14.01,2013-01-09 21:53:00,
2013-01-09 16:58:00,39.3,34.3,30.09,WSW,244,9.0,9.0,82,0.00,,SCT250,0.00,5.00,VWS V14.01,2013-01-09 21:58:00,
2013-01-09 17:03:00,39.7,33.1,30.08,West,265,16.6,24.2,77,0.00,BKN,OVC,0.00,0.0,WeatherDisplay:10.37,2013-01-09 22:03:00,
2013-01-09 17:08:00,39.4,34.4,30.09,SW,230,5.0,9.0,82,0.00,,SCT250,0.00,0.00,VWS V14.01,2013-01-09 22:08:00,
2013-01-09 17:13:00,39.3,34.3,30.10,WSW,256,6.0,8.0,82,0.00,,SCT250,0.00,0.00,VWS V14.01,2013-01-09 22:13:00,
2013-01-09 17:18:00,39.7,33.1,30.08,WSW,238,15.7,21.9,77,0.00,BKN,OVC,0.00,0.0,WeatherDisplay:10.37,2013-01-09 22:18:00,
2013-01-09 17:23:00,39.3,34.3,30.10,SSW,205,5.0,5.0,82,0.00,,SCT250,0.00,0.00,VWS V14.01,2013-01-09 22:23:00,
2013-01-09 17:28:00,39.7,33.1,30.09,WSW,248,16.0,26.5,77,0.00,BKN,OVC,0.00,0.0,WeatherDisplay:10.37,2013-01-09 22:28:00,
2013-01-09 17:33:00,39.4,34.1,30.11,WSW,247,5.0,8.0,81,0.00,,SCT250,0.00,0.00,VWS V14.01,2013-01-09 22:33:00,
2013-01-09 17:38:00,39.5,34.2,30.11,WSW,244,6.0,9.0,81,0.00,,SCT250,0.00,0.00,VWS V14.01,2013-01-09 22:38:00,
2013-01-09 17:43:00,39.9,32.6,30.10,WSW,246,12.9,18.4,75,0.00,BKN,OVC,0.00,0.0,WeatherDisplay:10.37,2013-01-09 22:43:00,
2013-01-09 17:48:00,39.4,34.1,30.11,SW,230,12.0,12.0,81,0.00,,SCT250,0.00,0.00,VWS V14.01,2013-01-09 22:48:00,
2013-01-09 17:53:00,39.5,33.8,30.11,SW,223,5.0,8.0,80,0.00,,SCT250,0.00,0.00,VWS V14.01,2013-01-09 22:53:00,
2013-01-09 17:58:00,39.5,33.8,30.11,WSW,244,10.0,12.0,80,0.00,,SCT250,0.00,0.00,VWS V14.01,2013-01-09 22:58:00,
2013-01-09 18:03:00,39.6,33.6,30.12,West,259,8.0,17.0,79,0.00,,SCT250,0.00,0.00,VWS V14.01,2013-01-09 23:03:00,
2013-01-09 18:08:00,40.2,32.2,30.10,SW,233,10.4,18.0,73,0.00,BKN,OVC,0.00,0.0,WeatherDisplay:10.37,2013-01-09 23:08:00,
2013-01-09 18:13:00,39.7,33.4,30.12,WSW,254,11.0,11.0,78,0.00,,SCT250,0.00,0.00,VWS V14.01,2013-01-09 23:13:00,
2013-01-09 18:18:00,39.8,33.5,30.12,West,267,8.0,8.0,78,0.00,,SCT250,0.00,0.00,VWS V14.01,2013-01-09 23:18:00,
2013-01-09 18:23:00,40.5,32.2,30.12,West,271,17.2,26.5,72,0.00,BKN,OVC,0.00,0.0,WeatherDisplay:10.37,2013-01-09 23:23:00,
2013-01-09 18:28:00,40.1,33.5,30.13,SW,229,7.0,11.0,77,0.00,,SCT250,0.00,0.00,VWS V14.01,2013-01-09 23:28:00,
2013-01-09 18:33:00,40.1,33.2,30.13,West,266,10.0,10.0,76,0.00,,SCT250,0.00,0.00,VWS V14.01,2013-01-09 23:33:00,
2013-01-09 18:38:00,40.2,33.2,30.13,WSW,249,9.0,10.0,76,0.00,,SCT250,0.00,0.00,VWS V14.01,2013-01-09 23:38:00,
2013-01-09 18:43:00,40.2,33.2,30.14,WSW,242,4.0,8.0,76,0.00,,SCT250,0.00,0.00,VWS V14.01,2013-01-09 23:43:00,
2013-01-09 18:48:00,40.2,33.2,30.15,West,260,11.0,12.0,76,0.00,,SCT250,0.00,0.00,VWS V14.01,2013-01-09 23:48:00,
2013-01-09 18:53:00,40.2,33.2,30.15,WSW,256,8.0,9.0,76,0.00,,SCT250,0.00,0.00,VWS V14.01,2013-01-09 23:53:00,
2013-01-09 18:58:00,40.8,32.1,30.13,WSW,253,17.0,26.5,71,0.00,BKN,OVC,0.00,0.0,WeatherDisplay:10.37,2013-01-09 23:58:00,
2013-01-09 19:03:00,40.2,33.6,30.15,West,267,8.0,9.0,77,0.00,,SCT250,0.00,0.00,VWS V14.01,2013-01-10 00:03:00,
2013-01-09 19:08:00,40.1,33.5,30.15,West,266,4.0,11.0,77,0.00,,SCT250,0.00,0.00,VWS V14.01,2013-01-10 00:08:00,
2013-01-09 19:13:00,40.7,32.4,30.14,WSW,249,12.8,27.6,72,0.00,BKN,OVC,0.00,0.0,WeatherDisplay:10.37,2013-01-10 00:13:00,
2013-01-09 19:18:00,40.2,33.6,30.16,WSW,249,8.0,10.0,77,0.00,,SCT250,0.00,0.00,VWS V14.01,2013-01-10 00:18:00,
2013-01-09 19:23:00,40.2,33.6,30.16,WSW,241,9.0,10.0,77,0.00,,SCT250,0.00,0.00,VWS V14.01,2013-01-10 00:23:00,
2013-01-09 19:28:00,40.7,32.7,30.16,West,259,13.4,23.0,73,0.00,BKN,OVC,0.00,0.0,WeatherDisplay:10.37,2013-01-10 00:28:00,
2013-01-09 19:33:00,40.0,33.7,30.17,WSW,252,8.0,9.0,78,0.00,,SCT250,0.00,0.00,VWS V14.01,2013-01-10 00:33:00,
2013-01-09 19:38:00,40.5,32.9,30.16,WSW,250,13.6,18.4,74,0.00,BKN,OVC,0.00,0.0,WeatherDisplay:10.37,2013-01-10 00:38:00,
2013-01-09 19:43:00,39.9,33.9,30.18,SW,216,10.0,10.0,79,0.00,,SCT250,0.00,0.00,VWS V14.01,2013-01-10 00:43:00,
2013-01-09 19:48:00,39.7,34.0,30.18,West,265,10.0,14.0,80,0.00,,SCT250,0.00,0.00,VWS V14.01,2013-01-10 00:48:00,
2013-01-09 19:53:00,39.7,34.0,30.19,SW,234,7.0,7.0,80,0.00,,SCT250,0.00,0.00,VWS V14.01,2013-01-10 00:53:00,
2013-01-09 19:58:00,39.6,34.0,30.19,WSW,246,5.0,10.0,80,0.00,,SCT250,0.00,0.00,VWS V14.01,2013-01-10 00:58:00,
2013-01-09 20:03:00,39.5,34.2,30.20,West,273,5.0,8.0,81,0.00,,SCT250,0.00,0.00,VWS V14.01,2013-01-10 01:03:00,
2013-01-09 20:08:00,39.5,34.2,30.20,WSW,252,9.0,9.0,81,0.00,,SCT250,0.00,0.00,VWS V14.01,2013-01-10 01:08:00,
2013-01-09 20:13:00,39.4,34.1,30.20,West,272,7.0,7.0,81,0.00,,SCT250,0.00,0.00,VWS V14.01,2013-01-10 01:13:00,
2013-01-09 20:18:00,39.3,34.0,30.21,WSW,254,6.0,11.0,81,0.00,,SCT250,0.00,0.00,VWS V14.01,2013-01-10 01:18:00,
2013-01-09 20:23:00,39.7,32.8,30.20,WSW,249,12.5,19.0,76,0.00,BKN,OVC,0.00,0.0,WeatherDisplay:10.37,2013-01-10 01:23:00,
2013-01-09 20:28:00,39.3,34.0,30.22,West,263,5.0,6.0,81,0.00,,SCT250,0.00,0.00,VWS V14.01,2013-01-10 01:28:00,
2013-01-09 20:33:00,39.5,32.6,30.20,WSW,244,11.5,18.4,76,0.00,BKN,OVC,0.00,0.0,WeatherDisplay:10.37,2013-01-10 01:33:00,
2013-01-09 20:38:00,39.0,33.7,30.23,WSW,257,12.0,15.0,81,0.00,,SCT050,0.00,0.00,VWS V14.01,2013-01-10 01:38:00,
2013-01-09 20:43:00,39.1,33.8,30.24,SW,225,6.0,6.0,81,0.00,,SCT050,0.00,0.00,VWS V14.01,2013-01-10 01:43:00,
2013-01-09 20:48:00,39.6,32.7,30.23,WSW,246,18.3,23.0,76,0.00,BKN,OVC,0.00,0.0,WeatherDisplay:10.37,2013-01-10 01:48:00,
2013-01-09 20:53:00,39.6,32.3,30.24,WSW,238,10.2,21.9,75,0.00,BKN,OVC,0.00,0.0,WeatherDisplay:10.37,2013-01-10 01:53:00,
2013-01-09 20:58:00,39.3,33.7,30.26,WSW,257,7.0,7.0,80,0.00,,SCT050,0.00,0.00,VWS V14.01,2013-01-10 01:58:00,
2013-01-09 21:03:00,39.3,33.7,30.27,WSW,256,5.0,8.0,80,0.00,,SCT050,0.00,0.00,VWS V14.01,2013-01-10 02:03:00,
2013-01-09 21:08:00,39.3,33.7,30.27,WNW,286,7.0,9.0,80,0.00,,SCT050,0.00,0.00,VWS V14.01,2013-01-10 02:08:00,
2013-01-09 21:13:00,39.3,34.0,30.28,West,264,6.0,9.0,81,0.00,,SCT050,0.00,0.00,VWS V14.01,2013-01-10 02:13:00,
2013-01-09 21:18:00,39.3,34.0,30.28,West,276,9.0,10.0,81,0.00,,SCT050,0.00,0.00,VWS V14.01,2013-01-10 02:18:00,
2013-01-09 21:23:00,39.7,32.8,30.27,WSW,256,15.0,18.4,76,0.00,BKN,OVC,0.00,0.0,WeatherDisplay:10.37,2013-01-10 02:23:00,
2013-01-09 21:28:00,39.2,34.2,30.29,WSW,255,8.0,9.0,82,0.00,,SCT050,0.00,0.00,VWS V14.01,2013-01-10 02:28:00,
2013-01-09 21:33:00,39.5,32.6,30.28,WSW,251,12.7,17.3,76,0.00,BKN,OVC,0.00,0.0,WeatherDisplay:10.37,2013-01-10 02:33:00,
2013-01-09 21:37:00,39.1,33.8,30.30,WSW,258,9.0,9.0,81,0.00,,SCT047,0.00,0.00,VWS V14.01,2013-01-10 02:37:00,
2013-01-09 21:42:00,38.9,33.9,30.30,West,273,7.0,7.0,82,0.00,,SCT047,0.00,0.00,VWS V14.01,2013-01-10 02:42:00,
2013-01-09 21:47:00,39.2,32.6,30.29,West,261,10.4,16.1,77,0.00,BKN,OVC,0.00,0.0,WeatherDisplay:10.37,2013-01-10 02:47:00,
2013-01-09 21:52:00,38.7,33.7,30.31,West,259,8.0,8.0,82,0.00,,SCT047,0.00,0.00,VWS V14.01,2013-01-10 02:52:00,
2013-01-09 21:57:00,38.7,33.7,30.31,West,263,8.0,9.0,82,0.00,,SCT047,0.00,0.00,VWS V14.01,2013-01-10 02:57:00,
2013-01-09 22:02:00,38.6,33.6,30.31,SW,236,5.0,8.0,82,0.00,,SCT047,0.00,0.00,VWS V14.01,2013-01-10 03:02:00,
2013-01-09 22:07:00,38.5,33.5,30.31,West,259,5.0,6.0,82,0.00,,SCT047,0.00,0.00,VWS V14.01,2013-01-10 03:07:00,
2013-01-09 22:12:00,38.4,33.4,30.32,West,263,5.0,9.0,82,0.00,,SCT047,0.00,0.00,VWS V14.01,2013-01-10 03:12:00,
2013-01-09 22:17:00,38.8,31.9,30.31,WSW,257,9.8,12.7,76,0.00,BKN,OVC,0.00,0.0,WeatherDisplay:10.37,2013-01-10 03:17:00,
2013-01-09 22:22:00,38.8,31.9,30.30,WSW,250,11.9,17.3,76,0.00,BKN,OVC,0.00,0.0,WeatherDisplay:10.37,2013-01-10 03:22:00,
2013-01-09 22:27:00,38.8,31.6,30.31,WSW,248,9.5,18.4,75,0.00,BKN,OVC,0.00,0.0,WeatherDisplay:10.37,2013-01-10 03:27:00,
2013-01-09 22:32:00,38.4,32.5,30.33,West,279,4.0,6.0,79,0.00,,BKN047,0.00,0.00,VWS V14.01,2013-01-10 03:32:00,
2013-01-09 22:37:00,38.3,32.4,30.33,West,266,5.0,8.0,79,0.00,,BKN047,0.00,0.00,VWS V14.01,2013-01-10 03:37:00,
2013-01-09 22:42:00,38.4,32.5,30.34,WSW,257,7.0,7.0,79,0.00,,BKN047,0.00,0.00,VWS V14.01,2013-01-10 03:42:00,
2013-01-09 22:47:00,38.3,32.0,30.34,West,259,6.0,6.0,78,0.00,,BKN047,0.00,0.00,VWS V14.01,2013-01-10 03:47:00,
2013-01-09 22:52:00,38.6,30.4,30.32,WSW,237,8.8,11.5,72,0.00,BKN,OVC,0.00,0.0,WeatherDisplay:10.37,2013-01-10 03:52:00,
2013-01-09 22:57:00,38.2,31.6,30.33,West,268,5.0,5.0,77,0.00,,BKN047,0.00,0.00,VWS V14.01,2013-01-10 03:57:00,
2013-01-09 23:02:00,38.2,31.3,30.34,West,263,5.0,5.0,76,0.00,,BKN047,0.00,0.00,VWS V14.01,2013-01-10 04:02:00,
2013-01-09 23:07:00,38.5,29.9,30.32,WSW,258,5.7,10.4,71,0.00,BKN,OVC,0.00,0.0,WeatherDisplay:10.37,2013-01-10 04:07:00,
2013-01-09 23:12:00,38.1,31.2,30.34,West,275,2.0,4.0,76,0.00,,BKN047,0.00,0.00,VWS V14.01,2013-01-10 04:12:00,
2013-01-09 23:17:00,38.0,31.1,30.34,WNW,287,4.0,6.0,76,0.00,,BKN047,0.00,0.00,VWS V14.01,2013-01-10 04:17:00,
2013-01-09 23:22:00,38.3,29.7,30.33,WSW,255,6.3,11.5,71,0.00,BKN,OVC,0.00,0.0,WeatherDisplay:10.37,2013-01-10 04:22:00,
2013-01-09 23:27:00,38.0,31.1,30.35,West,264,5.0,5.0,76,0.00,,BKN047,0.00,0.00,VWS V14.01,2013-01-10 04:27:00,
2013-01-09 23:32:00,37.9,31.0,30.35,West,264,2.0,3.0,76,0.00,,OVC045,0.00,0.00,VWS V14.01,2013-01-10 04:32:00,
2013-01-09 23:37:00,38.3,29.4,30.35,WSW,248,5.1,10.0,70,0.00,BKN,OVC,0.00,0.0,WeatherDisplay:10.37,2013-01-10 04:37:00,
2013-01-09 23:42:00,37.9,30.7,30.37,WSW,256,4.0,6.0,75,0.00,,OVC045,0.00,0.00,VWS V14.01,2013-01-10 04:42:00,
2013-01-09 23:47:00,38.2,29.3,30.35,West,275,8.8,15.0,70,0.00,BKN,OVC,0.00,0.0,WeatherDisplay:10.37,2013-01-10 04:47:00,
2013-01-09 23:52:00,37.9,30.4,30.37,West,277,4.0,4.0,74,0.00,,OVC045,0.00,0.00,VWS V14.01,2013-01-10 04:52:00,
2013-01-09 23:57:00,37.9,30.4,30.37,West,263,4.0,5.0,74,0.00,,OVC045,0.00,0.00,VWS V14.01,2013-01-10 04:57:00,